User: anonymous   Login
Location: Newark
(13.5236°S, 71.9791°W)
Time: 23:37:13
(UTC+00:00)
Language:

AO-85 - Orbit

View from above orbital plane
View from above orbital plane
View from above satellite
View from above satellite

Ground track
Ground track

The orbit data is extracted from the following two-line orbital elements,

1 40967U 15058D   19290.19732709  .00000105  00000 0  30433-4 0  8377
2 40967  64.7764 152.4510 0185833 163.3217 197.4115 14.76003686125525
Epoch (UTC): 17 October 2019 04:44:09
Eccentricity: 0.0185833
inclination: 64.7764°
perigee height: 511 km
apogee height: 772 km
right ascension of ascending node: 152.4510°
argument of perigee: 163.3217°
revolutions per day: 14.76003686
mean anomaly at epoch: 197.4115°
orbit number at epoch: 12552

The dashed part of the orbit path shows where the satellite is in the earth's shadow,  

DLR